Location: Artiguedieu
(43.5000°N, 0.5454°E)
Time: 21:02:59
(UTC+00:00)

Transit 2A - Pass Details

Date: 26 July 2021
Orbit: 594 x 964 km, 66.7° (Epoch: 28 September)

Event Time Altitude Azimuth Distance (km) Brightness Sun altitude
Rises 08:36:09 0° 240° (WSW) 2,832 8.6 40.5°
Reaches altitude 10° 08:38:36 10° 253° (WSW) 1,952 7.8 40.9°
Maximum altitude 08:42:23 28° 313° (NW) 1,180 6.9 41.6°
Drops below altitude 10° 08:46:23 10° 13° (NNE) 2,078 8.4 42.3°
Sets 08:49:05 0° 25° (NNE) 3,053 9.2 42.7°
